Vorticity
4 4 -2 11 7 2 1 3 -6 -1 -1 8 4 7 5 5 7 7 10 3 3 8 6 8 6 5 5 4 4 4 4 4 5 4 3 3 3 3 3 3 4 4 2 2 6 7 8 7 13
5 2 1 1 4 1 -1 4 1 -1 12 6 8 0 6 2 3 2 2 7 9 5 7 6 5 5 5 5 5 4 4 5 4 4 3 4 3 3 3 2 3 3 4 4 6 5 6 11 8
5 2 8 3 6 4 -1 3 -8 -1 -6 17 10 -4 3 7 -4 1 3 6 6 7 8 7 5 5 4 4 4 5 5 5 4 4 4 4 4 4 3 4 5 4 4 5 8 6 4 4 10
4 5 6 1 1 1 -3 -2 -1 -4 1 -1 5 33 -4 2 1 6 3 -0 1 6 8 8 8 9 9 8 7 7 6 6 6 5 5 5 5 5 5 5 4 4 5 4 5 6 4 5 7
5 4 4 -0 -3 -5 6 -1 0 0 -1 2 6 16 10 20 14 1 4 3 1 4 6 6 7 8 10 11 11 11 10 9 9 9 7 7 6 6 6 6 5 5 6 6 7 6 4 5 9
7 3 2 13 3 -3 -6 2 5 -1 1 -7 -2 12 7 22 9 0 18 15 10 5 8 4 4 4 4 5 6 8 9 9 9 9 8 8 8 8 8 9 9 9 9 8 6 6 8 4 8
10 2 3 8 12 8 -2 7 3 1 0 1 4 17 13 7 9 14 6 8 9 9 9 5 6 4 2 5 4 6 4 3 3 4 4 3 4 5 5 5 4 4 4 3 3 6 6 7 10
-1 -3 -2 8 11 3 4 2 5 1 -3 2 4 25 11 3 -3 4 -2 -9 26 9 8 9 8 10 11 11 5 6 7 5 7 9 15 15 11 7 7 7 7 6 6 6 5 8 9 9 9
-4 11 -1 10 0 0 -8 -0 6 5 6 4 9 22 6 5 13 11 14 14 6 7 11 10 11 7 5 5 3 6 9 12 2 7 6 8 13 15 14 10 8 7 7 10 9 14 12 6 7
-9 -2 -6 10 9 2 1 4 -3 -2 -2 1 20 19 5 12 8 7 10 14 14 5 7 7 4 6 6 5 7 6 3 3 4 3 4 6 3 4 7 9 8 7 7 8 10 8 6 5 6
-8 3 -3 8 4 1 -10 -4 0 3 3 -1 3 7 -7 -23 12 11 11 7 6 4 7 6 6 6 5 4 5 5 4 3 3 3 3 5 7 5 4 1 -1 1 3 4 2 2 7 5 6
-8 0 3 -3 5 4 -6 -9 -8 5 4 -1 10 8 7 5 3 12 8 1 6 1 4 2 5 5 4 1 1 2 3 5 5 5 4 5 5 4 4 3 4 3 12 6 6 4 3 7 6
-5 -3 -2 -1 -1 -0 -4 -12 2 4 6 6 -3 0 16 15 17 13 4 30 -1 2 2 3 2 3 4 4 6 8 7 8 7 7 5 7 6 4 4 6 7 6 5 4 3 5 7 5 4
6 -11 -3 -2 0 -6 -1 -15 27 1 1 2 -2 1 -0 6 13 17 7 4 7 6 3 6 6 7 10 8 9 11 11 8 8 10 10 9 8 8 9 9 8 8 7 9 9 7 5 6 5
23 -0 -3 0 0 -6 -9 -7 -5 12 3 0 -5 6 4 -0 18 7 5 5 3 4 9 0 5 3 7 4 6 7 7 9 7 8 9 7 7 7 7 4 7 5 11 10 7 8 7 6 4
44 7 -1 3 -5 3 -11 9 35 -3 0 1 4 3 11 23 5 5 2 1 2 4 8 10 7 5 5 5 6 5 6 5 5 8 6 4 4 5 -5 37 3 9 3 1 10 3 2 2 2
13 35 17 -2 8 0 -9 8 11 20 13 11 8 13 19 3 7 2 1 2 4 7 9 7 7 6 5 2 5 5 5 7 7 7 6 2 3 3 12 -42 11 -2 3 2 13 3 0 2 1
8 12 11 36 29 22 20 -7 3 12 16 5 6 8 16 3 2 1 3 4 4 7 7 7 7 5 5 2 2 4 9 5 4 5 7 6 7 7 8 3 15 3 11 6 8 2 3 0 -1
3 5 9 16 11 21 20 11 -6 -1 7 13 6 9 12 7 -1 10 3 3 6 5 8 7 6 5 5 3 2 4 1 4 6 7 7 8 8 7 6 9 7 5 5 6 7 -2 -3 5 8
6 7 7 13 15 6 1 3 -1 0 2 10 11 8 -1 -2 4 11 8 5 4 7 11 9 6 6 5 4 3 2 5 3 4 5 5 6 7 4 6 9 3 6 7 4 5 2 6 5 7
7 7 13 16 4 1 2 3 2 3 6 1 6 -0 4 -0 3 15 5 4 7 8 10 10 10 8 7 4 5 3 5 4 4 5 4 4 4 4 5 5 5 5 6 6 6 6 6 6 6
9 11 10 16 -4 -3 2 16 16 3 -0 1 1 5 8 -4 -4 12 5 4 7 12 6 5 15 12 8 6 6 5 5 4 4 3 3 5 5 4 4 6 6 7 7 7 7 6 7 9 11
14 8 4 5 9 4 -3 1 5 6 6 4 4 12 3 2 2 4 13 8 1 2 -1 -2 0 -1 0 6 6 6 6 6 5 4 4 4 4 5 3 4 6 7 7 7 8 11 11 12 11
11 13 8 6 5 -2 15 2 1 12 4 -0 -7 -2 -5 -7 3 5 7 4 6 1 1 -1 6 7 1 4 9 8 4 6 8 5 4 3 4 5 7 8 9 9 9 11 13 14 14 12 10
4 5 8 9 12 1 15 7 2 6 7 -0 3 2 -5 -6 5 10 5 5 1 6 2 2 2 2 1 -3 -1 11 4 7 11 0 18 21 14 11 12 10 8 8 10 12 12 11 11 11 11
4 7 5 4 8 6 7 10 17 15 -2 6 1 -1 -1 -0 4 -0 8 5 7 -2 5 3 3 4 -3 2 7 9 3 9 18 -6 4 14 11 7 8 10 12 11 11 10 9 8 8 8 7
15 1 6 5 5 7 5 5 5 13 23 9 1 -6 -9 11 8 12 5 7 8 5 2 3 2 -1 7 4 4 2 8 -0 20 10 -2 5 5 7 10 10 10 9 9 10 9 9 9 9 7
12 23 18 1 3 -1 1 4 6 6 11 20 19 23 15 14 14 6 3 7 6 0 3 2 4 2 -0 -5 -3 11 3 23 25 3 4 8 4 13 11 10 9 10 10 9 9 8 7 6 5
8 6 13 19 12 5 3 1 6 4 11 5 7 11 10 16 15 2 2 -6 17 9 11 5 7 6 -1 28 18 4 19 -19 13 48 18 2 8 12 11 10 8 9 10 8 7 6 5 4 4
11 9 9 8 9 2 5 5 10 6 5 10 11 10 8 14 13 9 5 5 3 7 11 15 12 -2 19 -1 14 25 51 -15 27 0 2 6 14 13 6 6 7 7 5 6 6 5 4 4 4
Height
5906 5907 5910 5907 5908 5906 5906 5907 5905 5903 5907 5910 5911 5913 5915 5915 5915 5916 5914 5913 5913 5913 5914 5913 5912 5912 5913 5913 5914 5914 5915 5916 5916 5915 5914 5913 5913 5911 5910 5908 5907 5905 5904 5902 5900 5898 5896 5893 5890
5906 5907 5909 5906 5905 5907 5907 5908 5908 5908 5909 5911 5908 5908 5912 5913 5913 5913 5912 5912 5912 5913 5913 5912 5911 5911 5912 5913 5914 5914 5915 5915 5915 5915 5914 5913 5913 5911 5909 5907 5906 5905 5904 5902 5900 5898 5895 5893 5890
5905 5907 5908 5907 5903 5903 5906 5904 5907 5912 5914 5912 5912 5913 5913 5914 5914 5913 5912 5911 5911 5912 5911 5910 5910 5911 5912 5913 5913 5914 5914 5914 5914 5914 5913 5913 5911 5910 5908 5906 5904 5903 5902 5900 5899 5896 5895 5893 5890
5904 5906 5908 5906 5903 5905 5907 5906 5908 5912 5913 5914 5915 5915 5914 5915 5915 5914 5913 5912 5912 5910 5909 5908 5910 5910 5911 5912 5913 5913 5913 5913 5913 5913 5912 5911 5910 5909 5907 5905 5903 5901 5900 5899 5898 5896 5894 5891 5889
5902 5905 5907 5906 5906 5906 5905 5906 5908 5911 5913 5913 5913 5911 5912 5910 5911 5912 5912 5911 5910 5909 5908 5908 5908 5910 5910 5911 5912 5912 5912 5912 5912 5912 5912 5911 5909 5908 5906 5904 5902 5900 5898 5896 5895 5894 5893 5890 5887
5901 5904 5906 5906 5904 5905 5906 5905 5907 5909 5912 5912 5910 5909 5908 5908 5909 5909 5908 5909 5908 5908 5907 5907 5908 5909 5910 5911 5911 5911 5911 5911 5910 5910 5910 5909 5907 5906 5905 5903 5901 5899 5896 5894 5892 5891 5890 5887 5885
5899 5903 5904 5901 5904 5906 5905 5905 5907 5909 5909 5910 5910 5907 5907 5906 5906 5906 5908 5908 5906 5906 5905 5906 5908 5909 5909 5910 5910 5910 5910 5909 5908 5908 5907 5906 5904 5903 5902 5900 5899 5897 5895 5893 5891 5889 5887 5884 5883
5898 5901 5900 5899 5904 5903 5903 5903 5905 5906 5906 5908 5907 5906 5906 5906 5904 5905 5907 5907 5906 5904 5904 5905 5906 5906 5907 5908 5909 5909 5909 5908 5908 5906 5905 5904 5902 5901 5900 5899 5897 5895 5893 5891 5889 5887 5885 5882 5881
5895 5899 5898 5899 5901 5901 5899 5901 5904 5904 5905 5906 5908 5906 5905 5903 5903 5906 5905 5907 5905 5905 5905 5905 5906 5906 5907 5907 5908 5908 5908 5907 5906 5905 5904 5902 5901 5900 5898 5897 5895 5893 5891 5889 5887 5885 5883 5881 5879
5893 5896 5896 5897 5898 5899 5898 5898 5901 5903 5904 5905 5907 5907 5906 5906 5904 5905 5907 5907 5906 5906 5905 5906 5907 5907 5907 5907 5906 5906 5906 5906 5905 5904 5902 5901 5900 5898 5897 5895 5893 5891 5889 5887 5886 5884 5882 5880 5879
5892 5893 5895 5895 5896 5896 5895 5896 5898 5901 5903 5904 5907 5909 5908 5909 5909 5906 5906 5906 5906 5905 5905 5906 5907 5906 5907 5907 5906 5905 5904 5904 5903 5901 5900 5899 5898 5896 5894 5893 5892 5890 5888 5886 5885 5883 5881 5880 5877
5889 5890 5893 5893 5891 5892 5892 5893 5894 5897 5900 5900 5901 5904 5907 5908 5910 5907 5906 5905 5905 5904 5905 5905 5906 5907 5906 5905 5904 5904 5902 5902 5901 5899 5897 5895 5894 5893 5892 5891 5890 5888 5886 5884 5882 5881 5879 5878 5875
5885 5889 5890 5888 5890 5889 5890 5891 5892 5893 5894 5894 5895 5897 5901 5905 5908 5908 5907 5904 5905 5906 5905 5904 5904 5906 5905 5903 5902 5901 5900 5897 5897 5895 5894 5893 5892 5891 5889 5888 5886 5885 5883 5881 5879 5878 5876 5874 5872
5883 5882 5884 5885 5889 5890 5887 5889 5889 5890 5892 5891 5891 5890 5893 5903 5904 5905 5906 5906 5905 5904 5904 5902 5901 5902 5903 5900 5899 5897 5895 5893 5892 5892 5891 5890 5890 5889 5887 5885 5884 5882 5880 5879 5878 5875 5873 5871 5869
5877 5878 5880 5884 5886 5887 5888 5886 5889 5888 5887 5888 5888 5888 5889 5894 5901 5902 5904 5904 5903 5902 5900 5900 5899 5898 5899 5898 5895 5893 5892 5891 5890 5889 5888 5887 5888 5887 5886 5885 5883 5880 5879 5877 5875 5872 5870 5868 5866
5877 5877 5878 5883 5883 5884 5885 5889 5892 5887 5884 5884 5884 5885 5889 5891 5892 5896 5898 5899 5898 5898 5897 5897 5896 5897 5897 5896 5893 5890 5889 5888 5888 5888 5886 5883 5883 5883 5883 5880 5880 5875 5875 5873 5871 5868 5866 5864 5861
5875 5878 5879 5881 5880 5880 5880 5883 5890 5881 5879 5879 5882 5883 5886 5888 5889 5889 5891 5893 5894 5893 5893 5892 5893 5894 5894 5894 5891 5889 5889 5888 5886 5886 5884 5882 5879 5879 5878 5875 5874 5871 5869 5867 5864 5862 5859 5857 5855
5869 5871 5873 5876 5877 5873 5874 5875 5877 5876 5875 5875 5877 5878 5881 5884 5886 5886 5887 5888 5889 5889 5889 5889 5890 5890 5890 5889 5888 5888 5887 5886 5885 5883 5881 5880 5878 5875 5873 5870 5869 5866 5864 5860 5858 5854 5853 5851 5850
5859 5862 5863 5868 5866 5866 5868 5870 5869 5870 5867 5870 5873 5874 5876 5878 5880 5882 5883 5883 5883 5884 5885 5886 5887 5886 5886 5885 5883 5880 5880 5880 5879 5877 5874 5872 5872 5870 5867 5865 5863 5861 5857 5855 5853 5848 5846 5846 5844
5853 5855 5859 5861 5862 5859 5861 5861 5864 5863 5861 5863 5867 5869 5871 5872 5873 5876 5877 5878 5878 5879 5879 5880 5880 5880 5880 5879 5878 5873 5870 5869 5868 5867 5866 5864 5862 5862 5861 5858 5856 5854 5853 5851 5847 5844 5842 5839 5837
5848 5849 5856 5857 5855 5851 5853 5854 5857 5858 5859 5857 5860 5865 5866 5868 5869 5870 5870 5871 5872 5872 5872 5872 5872 5871 5871 5869 5868 5867 5865 5865 5864 5863 5862 5859 5856 5854 5853 5852 5850 5847 5847 5844 5842 5838 5836 5833 5829
5841 5846 5847 5848 5847 5845 5845 5844 5849 5851 5851 5853 5856 5860 5862 5864 5865 5867 5867 5866 5866 5867 5866 5865 5864 5864 5864 5865 5864 5862 5861 5859 5858 5857 5855 5853 5851 5848 5845 5843 5841 5839 5837 5835 5833 5831 5828 5825 5822
5836 5836 5834 5835 5835 5836 5838 5835 5843 5844 5844 5847 5849 5853 5855 5857 5858 5860 5862 5862 5861 5861 5860 5861 5861 5860 5860 5860 5859 5858 5856 5854 5851 5850 5848 5845 5842 5839 5837 5834 5832 5830 5828 5825 5823 5820 5818 5815 5812
5829 5830 5828 5828 5827 5824 5830 5830 5831 5837 5840 5841 5843 5845 5848 5850 5851 5852 5854 5855 5856 5856 5855 5855 5855 5855 5854 5853 5851 5850 5849 5848 5846 5842 5840 5837 5833 5830 5828 5825 5822 5819 5817 5814 5812 5810 5808 5806 5804
5819 5822 5821 5819 5818 5815 5825 5821 5821 5832 5834 5836 5837 5838 5839 5840 5842 5843 5845 5848 5848 5849 5849 5849 5848 5848 5847 5846 5846 5844 5842 5839 5837 5834 5831 5827 5824 5821 5817 5814 5811 5809 5806 5804 5802 5800 5798 5797 5795
5812 5812 5811 5807 5811 5811 5813 5805 5813 5825 5829 5828 5829 5830 5830 5831 5832 5835 5837 5839 5839 5840 5841 5841 5840 5840 5840 5839 5838 5837 5834 5831 5828 5825 5823 5819 5816 5812 5809 5806 5804 5801 5798 5796 5793 5792 5790 5788 5786
5806 5801 5804 5798 5798 5796 5797 5801 5805 5813 5815 5818 5820 5821 5822 5824 5823 5826 5828 5829 5831 5831 5831 5830 5830 5831 5830 5829 5828 5827 5824 5821 5820 5818 5815 5812 5809 5805 5802 5799 5796 5793 5790 5787 5784 5782 5780 5779 5776
5792 5798 5793 5789 5786 5784 5782 5786 5792 5801 5807 5810 5811 5811 5814 5815 5816 5817 5819 5819 5820 5819 5819 5820 5820 5821 5820 5818 5819 5818 5816 5813 5810 5809 5807 5804 5801 5796 5794 5791 5787 5785 5782 5780 5777 5774 5772 5770 5767
5785 5780 5781 5780 5777 5771 5771 5773 5782 5786 5792 5798 5801 5801 5801 5803 5806 5808 5808 5808 5806 5808 5809 5811 5810 5810 5807 5806 5808 5806 5804 5802 5799 5798 5798 5795 5792 5788 5785 5783 5780 5777 5776 5774 5771 5768 5765 5762 5759
5769 5767 5766 5764 5764 5764 5762 5760 5770 5774 5779 5783 5789 5790 5791 5794 5796 5795 5794 5793 5795 5797 5798 5796 5797 5798 5795 5796 5796 5795 5790 5790 5788 5789 5787 5786 5784 5780 5777 5775 5774 5769 5766 5765 5761 5758 5755 5753 5749